Regional Weather Roundup
Issued by NWS

Home | Current Version | Previous Version | Text Only | Print | Product List | Glossary Off
Versions: 1 2 3 4 5 6 7 8 9 10 11 12 13 14 15 16 17 18 19 20 21 22 23 24 25 26 27 28 29 30 31 32 33 34 35 36 37 38 39 40 41 42 43 44 45 46 47 48 49 50

000
ASUS43 KLMK 181410
RWRKY
KENTUCKY REGIONAL WEATHER ROUNDUP
NATIONAL WEATHER SERVICE LOUISVILLE KY
1000 AM EDT FRI AUG 18 2017

NOTE "FAIR" INDICATES FEW OR NO CLOUDS BELOW 12,000 FEET
WITH NO SIGNIFICANT WEATHER AND/OR OBSTRUCTIONS TO VISIBILITY.

KYZ001>023-026-027-061>063-070>075-181500-
WESTERN AND SOUTH CENTRAL KENTUCKY

CITY           SKY/WX    TMP DP  RH WIND       PRES   REMARKS
PADUCAH        SUNNY     77  66  68 W7        29.98R
HENDERSON      SUNNY     75  68  78 W8        29.96R
OWENSBORO      SUNNY     76  69  79 W7        29.96R
HOPKINSVILLE   SUNNY     77  71  81 SW8       29.98S
BOWLING GREEN  SUNNY     79  72  79 W8        29.97S
GLASGOW        NOT AVBL
$$

KYZ024-025-028>034-038-045-046-053-181500-
NORTH CENTRAL KENTUCKY

CITY           SKY/WX    TMP DP  RH WIND       PRES   REMARKS
LOUISVILLE/SDF MOSUNNY   78  70  76 W7        29.92F
LOUISVILLE/LOU SUNNY     78  72  81 W6        29.93S
FORT KNOX      SUNNY     77  69  75 SW8       29.94R
$$

KYZ035>037-039>044-047>052-055>060-089>105-181500-
NORTHEAST KENTUCKY

CITY           SKY/WX    TMP DP  RH WIND       PRES   REMARKS
LEXINGTON      PTSUNNY   77  70  79 W9        29.94S
COVINGTON      PTSUNNY   76  72  87 W12       29.91R
FRANKFORT      PTSUNNY   78  69  73 VRB6      29.93R
$$

KYZ054-064>069-076>088-106>120-181500-
SOUTHEAST KENTUCKY

CITY           SKY/WX    TMP DP  RH WIND       PRES   REMARKS
JACKSON        CLOUDY    74  72  93 CALM      29.96S FOG
LONDON         RAIN      74  72  93 SW7       29.97S FOG
SOMERSET       CLOUDY    72  72 100 W6        29.98R
MIDDLESBORO    NOT AVBL
MONTICELLO     CLOUDY    76  73  91 W10G17    30.00R
$$





USA.gov is the U.S. government's official web portal to all federal, state and local government web resources and services.